EW8080 Weather Reports


Display with metric or nautical units.
time (UTC)temp
F
wind
direction
speed
MPH
gust
MPH
rain 1hr
in
rain 24hr
in
rain mn
in
humidity
%
barometer
mb
20210920013116 58 0 0.0 0.0 0.00 0.16 0.16 96 1024.1
20210920012416 58 0 0.0 0.0 0.00 0.16 0.16 96 1024.1
20210920011716 57 0 0.0 0.0 0.00 0.16 0.16 95 1024.1
20210920011017 58 0 0.0 0.0 0.00 0.16 0.16 93 1024.1
20210920010317 58 0 0.0 0.0 0.00 0.16 0.16 89 1024.1
20210920005616 58 0 0.0 0.0 0.00 0.16 0.16 86 1024.1
20210920004917 58 0 0.0 0.0 0.00 0.16 0.16 84 1024.1
20210920004216 59 0 0.0 0.0 0.00 0.16 0.16 82 1024.1
20210920003516 59 0 0.0 0.0 0.00 0.16 0.16 82 1024.1
20210920002816 59 0 0.0 0.0 0.00 0.16 0.16 80 1024.1
20210920002116 59 0 0.0 0.0 0.00 0.16 0.16 78 1024.1
20210920001416 59 0 0.0 0.0 0.00 0.16 0.16 78 1023.1
20210920000716 60 0 0.0 0.0 0.00 0.16 0.16 76 1023.1
20210920000016 60 0 0.0 0.0 0.00 0.16 0.16 75 1023.1
20210919235316 60 0 0.0 0.0 0.00 0.16 0.16 75 1023.1
20210919234616 60 0 0.0 0.0 0.00 0.16 0.16 74 1023.1
20210919233917 60 0 0.0 0.0 0.00 0.16 0.16 73 1023.1
20210919233216 60 0 0.0 0.0 0.00 0.16 0.16 71 1023.1
20210919232516 61 0 0.0 0.0 0.00 0.16 0.16 70 1023.1
20210919231816 61 0 0.0 0.0 0.00 0.16 0.16 70 1022.1
20210919231117 61 0 0.0 0.0 0.00 0.16 0.16 70 1022.1
20210919230417 62 0 0.0 0.0 0.00 0.16 0.16 70 1022.1
20210919225716 63 0 0.0 0.0 0.00 0.16 0.16 67 1022.1
20210919225016 63 0 0.0 0.0 0.00 0.16 0.16 67 1022.1
20210919224316 63 0 0.0 0.0 0.00 0.16 0.16 67 1022.1
20210919223616 63 0 0.0 0.0 0.00 0.16 0.16 67 1022.1
20210919222916 63 0 0.0 0.0 0.00 0.16 0.16 66 1022.1
20210919222216 63 0 0.0 0.0 0.00 0.16 0.16 66 1022.1
20210919221516 64 0 0.0 0.0 0.00 0.16 0.16 66 1022.1
20210919220816 64 0 0.0 0.0 0.00 0.16 0.16 64 1022.1
20210919220117 69 0 0.0 0.0 0.00 0.16 0.16 51 1022.1
20210919215416 69 0 0.0 0.0 0.00 0.16 0.16 51 1022.1
20210919214716 69 0 0.0 0.0 0.00 0.16 0.16 51 1022.1
20210919214016 69 0 0.0 0.0 0.00 0.16 0.16 51 1022.1
20210919213316 69 0 0.0 3.0 0.00 0.16 0.16 51 1022.1
20210919212616 69 0 0.0 4.0 0.00 0.16 0.16 51 1022.1
20210919211916 69 0 0.0 3.0 0.00 0.16 0.16 51 1021.1
20210919211216 69 10 0.0 6.0 0.00 0.16 0.16 51 1021.1
20210919210516 69 7 1.0 6.0 0.00 0.16 0.16 51 1021.1
20210919205816 69 0 0.0 6.0 0.00 0.16 0.16 51 1021.1
20210919205116 69 16 1.0 13.0 0.00 0.16 0.16 51 1021.1
20210919204416 69 351 3.0 10.0 0.00 0.16 0.16 51 1021.1
20210919203716 69 354 2.0 10.0 0.00 0.16 0.16 51 1021.1
20210919203016 69 11 2.0 13.0 0.00 0.16 0.16 51 1021.1
20210919202316 69 34 2.0 13.0 0.00 0.16 0.16 51 1021.1
20210919201617 69 344 5.0 14.0 0.00 0.16 0.16 51 1021.1
20210919200916 69 359 2.0 13.0 0.00 0.16 0.16 51 1021.1
20210919200216 69 24 4.0 16.0 0.00 0.16 0.16 51 1022.1
20210919195516 69 14 5.0 19.0 0.00 0.16 0.16 51 1022.1
20210919194817 69 20 3.0 9.0 0.00 0.16 0.16 51 1021.1
20210919194116 69 350 8.0 17.0 0.00 0.16 0.16 51 1021.1
20210919193417 69 4 8.0 16.0 0.00 0.16 0.16 51 1021.1
20210919192716 69 12 7.0 16.0 0.00 0.16 0.16 51 1021.1
20210919192016 69 21 5.0 13.0 0.00 0.16 0.16 51 1021.1
20210919191316 69 9 6.0 21.0 0.00 0.16 0.16 51 1021.1
20210919190616 69 359 7.0 21.0 0.00 0.16 0.16 51 1021.1
20210919185916 69 1 10.0 21.0 0.00 0.16 0.16 51 1021.1
20210919185216 69 7 8.0 21.0 0.00 0.16 0.16 51 1021.1
20210919184516 69 3 9.0 21.0 0.00 0.16 0.16 51 1021.1
20210919183817 69 2 8.0 21.0 0.00 0.16 0.16 51 1021.1
20210919183116 69 356 6.0 16.0 0.00 0.16 0.16 55 1021.1
20210919182416 69 348 9.0 20.0 0.00 0.16 0.16 48 1021.1
20210919181716 69 346 11.0 21.0 0.00 0.16 0.16 48 1021.1
20210919181016 69 347 7.0 26.0 0.00 0.16 0.16 55 1021.1
20210919180316 69 357 9.0 26.0 0.00 0.16 0.16 53 1021.1
20210919175616 69 5 8.0 17.0 0.00 0.16 0.16 53 1021.1
20210919174916 69 16 6.0 10.0 0.00 0.16 0.16 53 1021.1
20210919174216 69 8 7.0 17.0 0.00 0.16 0.16 53 1021.1
20210919173516 69 354 10.0 17.0 0.00 0.16 0.16 53 1021.1
20210919172817 69 348 12.0 20.0 0.00 0.16 0.16 53 1022.1
20210919172116 69 345 9.0 23.0 0.00 0.16 0.16 53 1022.1
20210919171417 69 355 9.0 21.0 0.00 0.16 0.16 59 1022.1
20210919170716 68 356 6.0 21.0 0.00 0.16 0.16 56 1022.1
20210919170016 68 358 8.0 19.0 0.00 0.16 0.16 56 1021.1
20210919165316 68 351 12.0 19.0 0.00 0.16 0.16 56 1021.1
20210919164616 70 4 9.0 19.0 0.00 0.16 0.16 66 1022.1
20210919163917 70 352 10.0 24.0 0.00 0.16 0.16 66 1022.1
20210919163217 70 357 9.0 23.0 0.00 0.16 0.16 66 1021.1
20210919162516 70 351 11.0 17.0 0.00 0.16 0.16 66 1021.1
20210919161816 70 350 5.0 17.0 0.00 0.16 0.16 66 1022.1
20210919161118 70 356 6.0 14.0 0.00 0.16 0.16 66 1022.1
20210919160418 70 3 6.0 13.0 0.00 0.16 0.16 65 1021.1
20210919155716 70 10 7.0 19.0 0.00 0.16 0.16 65 1021.1
20210919155017 70 3 9.0 19.0 0.00 0.16 0.16 64 1021.1
20210919154316 70 356 10.0 14.0 0.00 0.16 0.16 66 1021.1
20210919153617 70 1 10.0 17.0 0.00 0.16 0.16 64 1021.1
20210919152917 70 21 6.0 19.0 0.00 0.16 0.16 63 1021.1
20210919152217 70 11 7.0 17.0 0.00 0.16 0.16 66 1021.1
20210919151518 70 2 6.0 13.0 0.00 0.16 0.16 66 1021.1
20210919150816 70 10 5.0 14.0 0.00 0.16 0.16 70 1021.1
20210919150117 70 3 6.0 14.0 0.00 0.16 0.16 70 1021.1
20210919145417 70 354 10.0 20.0 0.00 0.16 0.16 66 1021.1
20210919144717 70 353 11.0 20.0 0.00 0.16 0.16 64 1021.1
20210919144017 70 357 8.0 16.0 0.00 0.16 0.16 65 1021.1
20210919143317 70 1 7.0 17.0 0.00 0.16 0.16 69 1021.1
20210919142617 70 7 8.0 17.0 0.00 0.16 0.16 72 1021.1
20210919141917 69 358 9.0 19.0 0.00 0.16 0.16 68 1021.1
20210919141216 69 351 10.0 21.0 0.00 0.16 0.16 73 1021.1
20210919140517 69 2 10.0 21.0 0.00 0.16 0.16 69 1021.1
20210919135817 69 358 10.0 17.0 0.00 0.16 0.16 72 1021.1
20210919135116 69 351 7.0 20.0 0.00 0.16 0.16 73 1021.1
20210919134417 68 351 8.0 20.0 0.00 0.16 0.16 78 1020.1
20210919133717 68 348 7.0 13.0 0.00 0.16 0.16 78 1020.1
20210919133017 68 343 9.0 20.0 0.00 0.16 0.16 78 1020.1
20210919132317 68 355 8.0 21.0 0.00 0.16 0.16 78 1020.1
20210919131617 68 3 7.0 12.0 0.00 0.16 0.16 86 1020.1
20210919130918 63 6 7.0 18.0 0.00 0.16 0.16 100 1020.1
20210919130217 63 3 8.0 18.0 0.00 0.16 0.16 100 1019.1
20210919125518 63 4 8.0 16.0 0.00 0.16 0.16 100 1019.1
20210919124817 63 1 8.0 18.0 0.00 0.16 0.16 100 1020.1
20210919124117 63 12 6.0 19.0 0.00 0.16 0.16 100 1020.1
20210919123417 63 17 8.0 16.0 0.00 0.16 0.16 100 1020.1
20210919122717 63 4 4.0 13.0 0.00 0.16 0.16 100 1020.1
20210919122017 63 8 5.0 13.0 0.00 0.16 0.16 100 1020.1
20210919121317 63 354 7.0 13.0 0.00 0.16 0.16 100 1020.1
20210919120617 63 348 7.0 13.0 0.00 0.16 0.16 100 1020.1
20210919115918 63 353 6.0 10.0 0.00 0.16 0.16 100 1019.1
20210919115217 63 352 5.0 10.0 0.00 0.16 0.16 100 1019.1
20210919114517 63 350 6.0 13.0 0.00 0.16 0.16 100 1019.1
20210919113817 63 344 5.0 10.0 0.00 0.16 0.16 100 1019.1
20210919113117 63 351 4.0 10.0 0.00 0.16 0.16 100 1019.1
20210919112417 63 354 5.0 9.0 0.00 0.16 0.16 100 1019.1
20210919111717 63 354 7.0 10.0 0.00 0.16 0.16 100 1019.1
20210919111018 63 348 7.0 14.0 0.00 0.16 0.16 100 1019.1
20210919110317 63 347 6.0 14.0 0.00 0.16 0.16 100 1019.1
20210919105618 63 350 5.0 11.0 0.00 0.16 0.16 100 1019.1
20210919104917 63 355 3.0 11.0 0.00 0.16 0.16 100 1018.1
20210919104217 63 345 3.0 12.0 0.00 0.16 0.16 100 1018.1
20210919103517 63 343 5.0 13.0 0.00 0.16 0.16 100 1018.1
20210919102817 63 348 6.0 12.0 0.00 0.16 0.16 100 1018.1
20210919102117 63 349 6.0 13.0 0.00 0.16 0.16 100 1018.1
20210919101417 63 352 6.0 13.0 0.00 0.16 0.16 100 1018.1
20210919100717 65 355 6.0 12.0 0.00 0.16 0.16 100 1018.1
20210919100018 65 355 6.0 13.0 0.00 0.16 0.16 100 1018.1
20210919095317 65 349 5.0 13.0 0.00 0.16 0.16 100 1018.1
20210919094617 65 348 5.0 10.0 0.00 0.16 0.16 100 1018.1
20210919093918 65 352 5.0 10.0 0.00 0.16 0.16 100 1018.1
20210919093217 65 358 6.0 12.0 0.00 0.16 0.16 100 1018.1
20210919092517 65 356 6.0 12.0 0.00 0.16 0.16 100 1018.1
20210919091817 65 351 7.0 16.0 0.00 0.16 0.16 100 1017.1
20210919091117 65 343 9.0 16.0 0.00 0.16 0.16 100 1017.1
20210919090418 65 351 8.0 13.0 0.00 0.16 0.16 100 1017.1
20210919085717 65 350 9.0 17.0 0.00 0.16 0.16 100 1017.1
20210919085017 65 351 8.0 17.0 0.00 0.16 0.16 100 1017.1
20210919084317 65 1 6.0 17.0 0.00 0.16 0.16 100 1016.1
20210919083617 66 359 5.0 9.0 0.00 0.16 0.16 100 1016.1
20210919082917 66 1 5.0 12.0 0.00 0.16 0.16 100 1017.1
20210919082217 66 359 3.0 10.0 0.00 0.16 0.16 100 1017.1
20210919081517 66 358 5.0 12.0 0.00 0.16 0.16 100 1016.1
20210919080817 66 1 6.0 12.0 0.00 0.16 0.16 100 1016.1
20210919080117 66 350 7.0 13.0 0.00 0.16 0.16 100 1017.1
20210919075417 66 344 8.0 14.0 0.00 0.16 0.16 100 1017.1
20210919074717 66 338 7.0 14.0 0.00 0.16 0.16 100 1016.1
20210919074017 66 343 6.0 10.0 0.00 0.16 0.16 100 1016.1
20210919073317 66 337 4.0 9.0 0.00 0.16 0.16 100 1016.1
20210919072617 66 341 5.0 8.0 0.00 0.16 0.16 100 1016.1
20210919071917 66 341 5.0 9.0 0.00 0.16 0.16 100 1016.1
20210919071217 66 332 3.0 9.0 0.00 0.16 0.16 100 1016.1
20210919070517 66 341 4.0 10.0 0.00 0.16 0.16 100 1016.1
20210919065817 66 345 6.0 10.0 0.00 0.16 0.16 100 1016.1
20210919065117 66 347 6.0 10.0 0.00 0.16 0.16 100 1016.1
20210919064417 66 347 5.0 10.0 0.00 0.16 0.16 100 1017.1
20210919063717 66 340 4.0 10.0 0.00 0.16 0.16 100 1017.1
20210919063017 66 342 6.0 10.0 0.00 0.16 0.16 100 1017.1
20210919062317 66 345 3.0 6.0 0.00 0.16 0.16 100 1017.1
20210919061617 66 0 0.0 5.0 0.00 0.16 0.16 100 1017.1
20210919060917 66 341 1.0 5.0 0.00 0.16 0.16 100 1017.1
20210919060217 66 341 1.0 6.0 0.00 0.16 0.16 100 1017.1
20210919055517 66 344 0.0 6.0 0.00 0.16 0.16 100 1017.1
20210919054819 66 0 0.0 0.0 0.04 0.16 0.16 100 1017.1
20210919054117 66 0 0.0 5.0 0.16 0.16 0.16 100 1017.1
20210919053417 66 0 0.0 5.0 0.16 0.16 0.16 100 1017.1
20210919052717 66 0 0.0 0.0 0.16 0.16 0.16 100 1017.1
20210919052017 66 0 0.0 0.0 0.16 0.16 0.16 100 1017.1
20210919051317 66 0 0.0 0.0 0.16 0.16 0.16 100 1017.1
20210919050618 66 0 0.0 0.0 0.16 0.16 0.16 100 1017.1
20210919045917 66 0 0.0 0.0 0.16 0.16 0.16 100 1017.1
20210919045217 66 13 0.0 8.0 0.16 0.16 0.16 100 1017.1
20210919044517 66 353 4.0 8.0 0.00 0.00 0.00 100 1017.1
20210919043817 66 347 7.0 14.0 0.00 0.00 0.00 100 1017.1
20210919043117 66 351 5.0 14.0 0.00 0.00 0.00 100 1017.1
20210919042417 65 350 0.0 8.0 0.00 0.00 0.00 100 1017.1
20210919041717 65 0 0.0 4.0 0.00 0.00 0.00 100 1017.1
20210919041017 65 0 0.0 0.0 0.00 0.00 0.00 100 1017.1
20210919040317 65 0 0.0 0.0 0.00 0.00 0.00 100 1016.1
20210919035617 65 0 0.0 0.0 0.00 0.00 0.00 100 1016.1
20210919034917 65 0 0.0 0.0 0.00 0.00 0.00 100 1016.1
20210919034217 65 0 0.0 5.0 0.00 0.00 0.00 100 1016.1
20210919033517 65 313 1.0 6.0 0.00 0.00 0.00 100 1016.1
20210919032817 65 294 2.0 6.0 0.00 0.00 0.00 100 1016.1
20210919032117 65 287 0.0 6.0 0.00 0.00 0.00 100 1016.1
20210919031417 65 281 1.0 8.0 0.00 0.00 0.00 100 1016.1
20210919030717 65 0 0.0 6.0 0.00 0.00 0.00 100 1016.1
20210919030017 65 0 0.0 0.0 0.00 0.00 0.00 100 1016.1
20210919025318 65 0 0.0 0.0 0.00 0.00 0.00 100 1016.1
20210919024617 65 0 0.0 0.0 0.00 0.00 0.00 100 1016.1
20210919023917 65 0 0.0 0.0 0.00 0.00 0.00 100 1016.1
20210919023217 66 0 0.0 5.0 0.00 0.00 0.00 100 1016.1
20210919022517 66 313 0.0 6.0 0.00 0.00 0.00 100 1016.1
20210919021817 66 0 0.0 0.0 0.00 0.00 0.00 100 1016.1
20210919021117 66 0 0.0 0.0 0.00 0.00 0.00 100 1016.1
20210919020417 66 0 0.0 4.0 0.00 0.00 0.00 100 1016.1
20210919015719 66 0 0.0 0.0 0.00 0.00 0.00 100 1016.1
20210919015019 66 0 0.0 4.0 0.00 0.00 0.00 100 1016.1
20210919014317 66 0 0.0 0.0 0.00 0.00 0.00 100 1016.1
20210919013617 66 0 0.0 0.0 0.00 0.00 0.00 100 1016.1